TimeAKDT,TemperatureF,Dew PointF,Humidity,Sea Level PressureIn,VisibilityMPH,Wind Direction,Wind SpeedMPH,Gust SpeedMPH,PrecipitationIn,Events,Conditions,WindDirDegrees,DateUTC
12:53 AM,60.1,55.9,86,30.17,10.0,SSW,6.9,-,N/A,,Clear,200,2013-07-19 08:53:00
1:27 AM,55.4,53.6,94,30.17,10.0,SE,3.5,-,N/A,,Mostly Cloudy,140,2013-07-19 09:27:00
1:53 AM,57.0,55.0,93,30.17,10.0,SE,3.5,-,N/A,,Mostly Cloudy,140,2013-07-19 09:53:00
2:53 AM,59.0,57.0,93,30.17,10.0,North,-9999.0,-,N/A,,Overcast,0,2013-07-19 10:53:00
3:53 AM,60.1,57.0,90,30.17,10.0,SSW,4.6,-,N/A,,Overcast,210,2013-07-19 11:53:00
4:53 AM,59.0,55.9,90,30.17,10.0,Calm,Calm,-,N/A,,Overcast,0,2013-07-19 12:53:00
5:53 AM,57.9,55.9,93,30.17,10.0,Calm,Calm,-,N/A,,Overcast,0,2013-07-19 13:53:00
6:53 AM,60.1,55.9,86,30.17,10.0,Calm,Calm,-,N/A,,Overcast,0,2013-07-19 14:53:00
7:53 AM,60.1,55.9,86,30.17,10.0,Calm,Calm,-,N/A,,Overcast,0,2013-07-19 15:53:00
8:53 AM,61.0,55.0,81,30.18,10.0,Calm,Calm,-,N/A,,Overcast,0,2013-07-19 16:53:00
9:53 AM,62.1,55.9,80,30.17,10.0,South,3.5,-,N/A,,Mostly Cloudy,190,2013-07-19 17:53:00
10:04 AM,62.6,55.4,77,30.17,10.0,South,3.5,-,N/A,,Scattered Clouds,170,2013-07-19 18:04:00
10:53 AM,62.1,57.0,84,30.17,10.0,South,6.9,-,N/A,,Clear,190,2013-07-19 18:53:00
11:53 AM,64.0,57.9,80,30.17,10.0,SSE,5.8,-,N/A,,Clear,160,2013-07-19 19:53:00
12:53 PM,64.0,55.9,75,30.16,10.0,SSE,8.1,-,N/A,,Mostly Cloudy,160,2013-07-19 20:53:00
1:53 PM,64.9,57.0,75,30.16,10.0,SSE,10.4,-,N/A,,Mostly Cloudy,160,2013-07-19 21:53:00
2:53 PM,66.0,57.9,75,30.14,10.0,South,6.9,-,N/A,,Partly Cloudy,170,2013-07-19 22:53:00
3:53 PM,64.9,57.0,75,30.13,10.0,SSE,6.9,-,N/A,,Partly Cloudy,160,2013-07-19 23:53:00
4:53 PM,66.0,57.9,75,30.12,10.0,SSW,8.1,-,N/A,,Clear,200,2013-07-20 00:53:00
5:53 PM,64.9,57.9,78,30.12,10.0,South,6.9,-,N/A,,Partly Cloudy,190,2013-07-20 01:53:00
6:53 PM,64.9,57.9,78,30.12,10.0,SW,8.1,-,N/A,,Clear,220,2013-07-20 02:53:00
7:53 PM,63.0,57.0,81,30.11,10.0,Variable,3.5,-,N/A,,Partly Cloudy,0,2013-07-20 03:53:00
8:53 PM,63.0,57.0,81,30.10,10.0,Calm,Calm,-,N/A,,Clear,0,2013-07-20 04:53:00
9:53 PM,61.0,55.9,83,30.10,10.0,SSW,4.6,-,N/A,,Clear,210,2013-07-20 05:53:00
10:53 PM,61.0,55.9,83,30.10,10.0,Calm,Calm,-,N/A,,Clear,0,2013-07-20 06:53:00
11:53 PM,66.0,48.0,52,30.10,10.0,NNE,10.4,-,N/A,,Clear,20,2013-07-20 07:53:00